Location: Unspecified
(0.0000°N, 0.0000°E)
Time: 17:57:04
(UTC+00:00)

STARLINK 1061 - Pass Details

Date: 18 January 2020
Orbit: 549 x 551 km, 53.0° (Epoch: 22 January)

Event Time Altitude Azimuth Distance (km) Brightness Sun altitude
Rises 19:08:31 0° 294° (WNW) 2,707 7.9 -13.6°
Reaches altitude 10° 19:11:34 10° 270° (W) 1,819 7.4 -14.3°
Maximum altitude 19:13:56 15° 235° (SW) 1,537 7.0 -14.9°
Drops below altitude 10° 19:16:18 10° 200° (SSW) 1,825 6.8 -15.4°
Sets 19:19:23 0° 176° (S) 2,722 7.4 -16.1°
